Tracking 31023 objects as of 19-Jul-2025
HD Live streaming from Space Station
objects crossing your sky now

COSMOS 839 DEB

Track COSMOS 839 DEB now!
10-day predictions


NORAD ID: 10450
Int'l Code: 1976-067AB
Perigee: 894.0 km
Apogee: 2,075.8 km
Inclination: 65.7 °
Period: 115.5 minutes
Semi major axis: 7855 km
RCS: 0.1765 m2 (medium)
Launch date: July 8, 1976
Source: Commonwealth of Independent States (former USSR) (CIS)
Launch site: PLESETSK MISSILE AND SPACE COMPLEX (PKMTR)

Note: This is SATELLITE DEBRIS
Your satellite tracking list
Your tracking list is empty




NASA's NSSDC Master Catalog

Two Line Element Set (TLE):
1 10450U 76067AB  25199.62340980 -.00000039  00000-0  46199-4 0  9990
2 10450  65.7422 178.5943 0752168 179.9808 180.1350 12.46841202231044
Source of the keplerian elements: AFSPC